LGAVLGSM

Guest
Details From LGAV - Athens Intl Airport Elefterios Venizel
To LGSM - SAMOS
Flight Number -
Tags generated
Created
Modified
Stats Distance 142 nm / 262 km
Max Altitude 7,900 ft / 2,408 m
Waypoints 3
Social Downloads 2
Likes 0
Share VATSIM

Download

Looking for another format? Having issues loading an existing format? Contact us
Advertisement - Login to hide

Notes

Basic altitude profile: - Ascent Rate: 1800ft/min - Ascent Speed: 185kts - Cruise Altitude: 19000ft - Cruise Speed: 305kts - Descent Rate: 1600ft/min - Descent Speed: 290kts Options: - Use NATs: yes - Use PACOTS: yes - Use low airways: yes - Use high airways: yes

Route

LGAV ERIMA LGSM

ID Type Via Altitude (ft/m) Position (lat/lon) Dist (leg/tot) Name
O LGAV APT - 0 / 0 37.93636 / 23.94447 - / 0 nm Athens Intl Airport Elefterios Venizel
ERIMA FIX - 7,900 / 2,408 37.74707 / 26.13388 104 / 104 nm
O LGSM APT - 0 / 0 37.68901 / 26.91112 37 / 141 nm SAMOS

Altitude Profile

Advertisement - Login to hide

LGAV

Details ICAO LGAV (ATH)
Name Athens Eleftherios Venizelos
Region Greece
Timezone Europe/Athens (UTC+2.0)
Stats Elevation 308 ft / 94 m (AMSL)
Location 37.936700° 23.944500°
Runways 2
Magnetic Variation 4.582° E

METAR

LGAV 170320Z 00000KT 9999 BKN030 07/06 Q1014 NOSIG

Decode

TAF

TAF TAF LGAV 162300Z 1700/1724 VRB05KT 9999 SCT030 BECMG 1721/1723 16015KT PROB40 TEMPO 1720/1724 5000 RA SCT020 BKN030 PROB30 TEMPO 1722/1724 3000 TSRA SCT010 FEW018CB BKN030

Decode

Departure Runways

ID Width Length Bearing (true/mag) Surface Threshold Overrun Markings Lighting
03L 148 ft / 45 m 12,479 ft / 3,804 m 36.85° / 32.27° ASPHALT 984 ft / 300 m 397 ft / 121 m PREC-APP CENTERLINE EDGE THRESHOLD ALSF-II TDZ
03R 148 ft / 45 m 13,136 ft / 4,004 m 36.89° / 32.31° ASPHALT 984 ft / 300 m 387 ft / 118 m PREC-APP CENTERLINE EDGE THRESHOLD ALSF-II TDZ
21L 148 ft / 45 m 13,136 ft / 4,004 m 216.91° / 212.32° ASPHALT 984 ft / 300 m 400 ft / 122 m PREC-APP CENTERLINE EDGE THRESHOLD ALSF-II TDZ
21R 148 ft / 45 m 12,479 ft / 3,804 m 216.87° / 212.28° ASPHALT 984 ft / 300 m 394 ft / 120 m PREC-APP CENTERLINE EDGE THRESHOLD ALSF-II TDZ

LGSM

Details ICAO LGSM (SMI)
Name SAMOS
Region Greece
Timezone Europe/Athens (UTC+2.0)
Stats Elevation 62 ft / 19 m (AMSL)
Location 37.689100° 26.912800°
Runways 1
Magnetic Variation 4.898° E

METAR

LGSM 170320Z 00000KT 9999 SCT025 12/10 Q1012

Decode

TAF

Not found

Destination Runways

ID Width Length Bearing (true/mag) Surface Threshold Overrun Markings Lighting
09 192 ft / 58 m 6,712 ft / 2,046 m 94.28° / 89.38° ASPHALT 0 ft / 0 m 0 ft / 0 m APP CENTERLINE EDGE THRESHOLD MALSF
27 192 ft / 58 m 6,712 ft / 2,046 m 274.29° / 269.39° ASPHALT 243 ft / 74 m 0 ft / 0 m APP CENTERLINE EDGE THRESHOLD MALSF

Popular Alternatives